| time (UTC) | temp F | wind direction | speed MPH | gust MPH | rain 1hr in | rain 24hr in | rain mn in | humidity % | barometer mb |
| 20260904204003 | 86 | 347 | 4.0 | 9.0 | 0.00 | 0.66 | 0.66 | 68 | 1011.5 |
| 20260904203004 | 87 | 331 | 4.0 | 9.0 | 0.00 | 0.66 | 0.66 | 70 | 1011.5 |
| 20260904202502 | 87 | 242 | 4.0 | 9.0 | 0.00 | 0.66 | 0.66 | 70 | 1011.4 |
| 20260904202004 | 86 | 340 | 3.0 | 8.0 | 0.00 | 0.66 | 0.66 | 68 | 1011.3 |
| 20260904201504 | 87 | 329 | 3.0 | 6.0 | 0.00 | 0.66 | 0.66 | 69 | 1011.3 |
| 20260904200502 | 87 | 355 | 3.0 | 9.0 | 0.00 | 0.66 | 0.66 | 68 | 1011.5 |
| 20260904195504 | 87 | 334 | 2.0 | 4.0 | 0.00 | 0.66 | 0.66 | 69 | 1011.6 |
| 20260904195005 | 86 | 334 | 2.0 | 5.0 | 0.00 | 0.66 | 0.66 | 73 | 1011.6 |
| 20260904194004 | 85 | 336 | 3.0 | 6.0 | 0.00 | 0.66 | 0.66 | 69 | 1011.8 |
| 20260904193504 | 85 | 340 | 2.0 | 6.0 | 0.00 | 0.66 | 0.66 | 72 | 1011.8 |
| 20260904192502 | 87 | 348 | 2.0 | 5.0 | 0.00 | 0.66 | 0.66 | 69 | 1011.8 |
| 20260904192004 | 86 | 348 | 3.0 | 5.0 | 0.00 | 0.66 | 0.66 | 72 | 1011.9 |
| 20260904191503 | 86 | 348 | 3.0 | 6.0 | 0.00 | 0.66 | 0.66 | 69 | 1011.9 |
| 20260904191004 | 86 | 348 | 4.0 | 9.0 | 0.00 | 0.66 | 0.66 | 68 | 1011.9 |
| 20260904190504 | 87 | 344 | 4.0 | 9.0 | 0.00 | 0.66 | 0.66 | 67 | 1012.0 |
| 20260904190006 | 87 | 333 | 3.0 | 9.0 | 0.00 | 0.66 | 0.66 | 66 | 1012.1 |
| 20260904185502 | 87 | 331 | 2.0 | 8.0 | 0.00 | 0.66 | 0.66 | 71 | 1012.1 |
| 20260904185003 | 87 | 331 | 3.0 | 8.0 | 0.00 | 0.66 | 0.66 | 70 | 1012.2 |
| 20260904183503 | 87 | 346 | 2.0 | 6.0 | 0.00 | 0.66 | 0.66 | 67 | 1012.1 |
| 20260904182503 | 87 | 346 | 2.0 | 6.0 | 0.00 | 0.66 | 0.66 | 68 | 1012.1 |
| 20260904182004 | 87 | 346 | 3.0 | 7.0 | 0.00 | 0.66 | 0.66 | 69 | 1012.2 |
| 20260904181503 | 87 | 348 | 3.0 | 7.0 | 0.00 | 0.66 | 0.66 | 69 | 1012.2 |
| 20260904180007 | 87 | 333 | 5.0 | 13.0 | 0.00 | 0.66 | 0.66 | 66 | 1012.3 |
| 20260904175502 | 87 | 347 | 4.0 | 11.0 | 0.00 | 0.66 | 0.66 | 69 | 1012.4 |
| 20260904175002 | 87 | 334 | 2.0 | 8.0 | 0.00 | 0.66 | 0.66 | 69 | 1012.4 |
| 20260904174004 | 87 | 355 | 6.0 | 11.0 | 0.00 | 0.66 | 0.66 | 68 | 1012.3 |
| 20260904173503 | 87 | 333 | 4.0 | 11.0 | 0.00 | 0.66 | 0.66 | 69 | 1012.4 |
| 20260904173003 | 87 | 309 | 4.0 | 10.0 | 0.00 | 0.66 | 0.66 | 70 | 1012.4 |
| 20260904172501 | 87 | 355 | 3.0 | 8.0 | 0.00 | 0.66 | 0.66 | 67 | 1012.5 |
| 20260904172002 | 86 | 346 | 2.0 | 8.0 | 0.00 | 0.66 | 0.66 | 69 | 1012.5 |
| 20260904170502 | 86 | 323 | 4.0 | 11.0 | 0.00 | 0.66 | 0.66 | 72 | 1012.6 |
| 20260904170006 | 86 | 350 | 4.0 | 11.0 | 0.00 | 0.66 | 0.66 | 69 | 1012.6 |
| 20260904165502 | 85 | 339 | 2.0 | 9.0 | 0.00 | 0.66 | 0.66 | 72 | 1012.6 |
| 20260904165003 | 86 | 340 | 2.0 | 9.0 | 0.00 | 0.66 | 0.66 | 73 | 1012.6 |
| 20260904164502 | 86 | 346 | 3.0 | 8.0 | 0.00 | 0.66 | 0.66 | 73 | 1012.7 |
| 20260904163502 | 85 | 316 | 3.0 | 10.0 | 0.00 | 0.66 | 0.66 | 72 | 1012.8 |
| 20260904163002 | 85 | 297 | 3.0 | 10.0 | 0.00 | 0.66 | 0.66 | 73 | 1012.9 |
| 20260904162502 | 85 | 350 | 3.0 | 6.0 | 0.00 | 0.66 | 0.66 | 72 | 1012.9 |
| 20260904162003 | 85 | 314 | 3.0 | 9.0 | 0.00 | 0.66 | 0.66 | 75 | 1013.0 |
| 20260904161502 | 85 | 336 | 3.0 | 9.0 | 0.00 | 0.66 | 0.66 | 74 | 1013.0 |
| 20260904160502 | 85 | 327 | 5.0 | 11.0 | 0.00 | 0.66 | 0.66 | 77 | 1013.0 |
| 20260904160004 | 84 | 336 | 3.0 | 11.0 | 0.00 | 0.66 | 0.66 | 72 | 1012.9 |
| 20260904155504 | 84 | 338 | 3.0 | 8.0 | 0.00 | 0.66 | 0.66 | 77 | 1013.0 |
| 20260904155006 | 84 | 312 | 3.0 | 8.0 | 0.00 | 0.66 | 0.66 | 76 | 1013.0 |
| 20260904154502 | 83 | 327 | 3.0 | 10.0 | 0.00 | 0.66 | 0.66 | 76 | 1012.9 |
| 20260904154003 | 84 | 334 | 4.0 | 10.0 | 0.00 | 0.66 | 0.66 | 76 | 1012.8 |
| 20260904153503 | 84 | 347 | 4.0 | 9.0 | 0.00 | 0.66 | 0.66 | 77 | 1012.9 |
| 20260904153003 | 83 | 334 | 4.0 | 10.0 | 0.00 | 0.66 | 0.66 | 76 | 1013.0 |
| 20260904151502 | 83 | 336 | 3.0 | 11.0 | 0.00 | 0.66 | 0.66 | 76 | 1013.1 |
| 20260904150502 | 82 | 328 | 5.0 | 13.0 | 0.00 | 0.66 | 0.66 | 77 | 1013.0 |
| 20260904150002 | 82 | 317 | 5.0 | 13.0 | 0.00 | 0.66 | 0.66 | 76 | 1013.1 |
| 20260904145501 | 82 | 331 | 6.0 | 11.0 | 0.00 | 0.66 | 0.66 | 76 | 1013.1 |
| 20260904145001 | 82 | 316 | 7.0 | 17.0 | 0.00 | 0.66 | 0.66 | 79 | 1013.1 |
| 20260904144002 | 82 | 344 | 5.0 | 13.0 | 0.00 | 0.66 | 0.66 | 78 | 1013.0 |
| 20260904143001 | 81 | 343 | 4.0 | 15.0 | 0.00 | 0.66 | 0.66 | 78 | 1013.1 |
| 20260904142501 | 81 | 270 | 5.0 | 11.0 | 0.00 | 0.66 | 0.66 | 79 | 1013.1 |
| 20260904142002 | 81 | 309 | 6.0 | 12.0 | 0.00 | 0.66 | 0.66 | 81 | 1013.1 |
| 20260904141501 | 81 | 244 | 5.0 | 12.0 | 0.00 | 0.66 | 0.66 | 80 | 1013.0 |
| 20260904141002 | 81 | 342 | 4.0 | 12.0 | 0.00 | 0.66 | 0.66 | 80 | 1013.0 |
| 20260904140502 | 80 | 339 | 4.0 | 9.0 | 0.00 | 0.66 | 0.66 | 81 | 1012.9 |
| 20260904140002 | 80 | 348 | 6.0 | 15.0 | 0.00 | 0.66 | 0.66 | 81 | 1012.9 |
| 20260904135501 | 80 | 336 | 5.0 | 15.0 | 0.00 | 0.66 | 0.66 | 80 | 1012.7 |
| 20260904135003 | 80 | 320 | 4.0 | 10.0 | 0.00 | 0.66 | 0.66 | 81 | 1012.7 |
| 20260904134501 | 80 | 5 | 5.0 | 11.0 | 0.00 | 0.66 | 0.66 | 82 | 1012.7 |
| 20260904133501 | 80 | 345 | 3.0 | 12.0 | 0.00 | 0.66 | 0.66 | 85 | 1012.7 |
| 20260904133003 | 79 | 24 | 4.0 | 12.0 | 0.00 | 0.66 | 0.66 | 84 | 1012.8 |
| 20260904132502 | 79 | 314 | 3.0 | 9.0 | 0.00 | 0.66 | 0.66 | 85 | 1012.8 |
| 20260904132002 | 78 | 320 | 2.0 | 11.0 | 0.00 | 0.66 | 0.66 | 86 | 1012.8 |
| 20260904131501 | 78 | 350 | 3.0 | 11.0 | 0.00 | 0.66 | 0.66 | 87 | 1013.0 |
| 20260904131003 | 78 | 319 | 2.0 | 8.0 | 0.00 | 0.66 | 0.66 | 88 | 1012.9 |
| 20260904130502 | 78 | 336 | 2.0 | 13.0 | 0.00 | 0.66 | 0.66 | 89 | 1012.9 |
| 20260904130006 | 77 | 321 | 3.0 | 13.0 | 0.00 | 0.66 | 0.66 | 89 | 1012.8 |
| 20260904125501 | 77 | 341 | 2.0 | 8.0 | 0.00 | 0.66 | 0.66 | 90 | 1012.8 |
| 20260904125002 | 76 | 338 | 2.0 | 9.0 | 0.00 | 0.66 | 0.66 | 90 | 1013.0 |
| 20260904124501 | 76 | 302 | 2.0 | 10.0 | 0.00 | 0.66 | 0.66 | 92 | 1012.8 |
| 20260904124002 | 76 | 277 | 2.0 | 10.0 | 0.00 | 0.66 | 0.66 | 92 | 1012.7 |
| 20260904123501 | 76 | 331 | 2.0 | 5.0 | 0.00 | 0.66 | 0.66 | 93 | 1012.8 |
| 20260904123003 | 75 | 307 | 2.0 | 6.0 | 0.00 | 0.66 | 0.66 | 93 | 1012.8 |
| 20260904122500 | 75 | 340 | 2.0 | 6.0 | 0.00 | 0.66 | 0.66 | 93 | 1012.9 |
| 20260904122001 | 74 | 350 | 2.0 | 6.0 | 0.00 | 0.66 | 0.66 | 94 | 1012.8 |
| 20260904121500 | 74 | 323 | 2.0 | 7.0 | 0.00 | 0.66 | 0.66 | 94 | 1012.8 |
| 20260904121001 | 74 | 294 | 2.0 | 6.0 | 0.00 | 0.66 | 0.66 | 94 | 1012.7 |
| 20260904120501 | 74 | 302 | 2.0 | 5.0 | 0.00 | 0.66 | 0.66 | 94 | 1012.9 |
| 20260904120005 | 74 | 340 | 2.0 | 4.0 | 0.00 | 0.66 | 0.66 | 94 | 1012.9 |
| 20260904114001 | 74 | 319 | 2.0 | 9.0 | 0.00 | 0.66 | 0.66 | 94 | 1012.8 |
| 20260904113500 | 74 | 323 | 2.0 | 9.0 | 0.00 | 0.66 | 0.66 | 94 | 1012.8 |
| 20260904113003 | 74 | 318 | 2.0 | 13.0 | 0.00 | 0.66 | 0.66 | 95 | 1012.9 |
| 20260904112500 | 74 | 254 | 2.0 | 13.0 | 0.00 | 0.66 | 0.66 | 94 | 1012.9 |
| 20260904112003 | 73 | 274 | 2.0 | 6.0 | 0.00 | 0.66 | 0.66 | 94 | 1013.0 |
| 20260904111002 | 73 | 263 | 2.0 | 4.0 | 0.00 | 0.66 | 0.66 | 94 | 1012.6 |
| 20260904110500 | 73 | 332 | 2.0 | 5.0 | 0.00 | 0.66 | 0.66 | 94 | 1012.6 |
| 20260904110005 | 73 | 294 | 1.0 | 4.0 | 0.00 | 0.68 | 0.66 | 95 | 1012.6 |
| 20260904105002 | 72 | 269 | 1.0 | 4.0 | 0.00 | 0.68 | 0.66 | 94 | 1012.3 |
| 20260904104501 | 72 | 269 | 1.0 | 8.0 | 0.00 | 0.68 | 0.66 | 94 | 1012.2 |
| 20260904104001 | 72 | 271 | 1.0 | 8.0 | 0.00 | 0.68 | 0.66 | 94 | 1012.1 |
| 20260904103501 | 72 | 27 | 1.0 | 3.0 | 0.00 | 0.68 | 0.66 | 94 | 1012.0 |
| 20260904102501 | 72 | 290 | 2.0 | 5.0 | 0.00 | 0.68 | 0.66 | 94 | 1011.7 |
| 20260904101501 | 72 | 304 | 1.0 | 3.0 | 0.00 | 0.68 | 0.66 | 94 | 1011.7 |
| 20260904101001 | 72 | 304 | 1.0 | 3.0 | 0.00 | 0.68 | 0.66 | 94 | 1012.0 |
| 20260904100000 | 72 | 310 | 1.0 | 2.0 | 0.00 | 0.68 | 0.66 | 94 | 1012.1 |
| 20260904095500 | 72 | 310 | 1.0 | 2.0 | 0.00 | 0.68 | 0.66 | 94 | 1012.0 |
| 20260904095001 | 72 | 310 | 0.0 | 3.0 | 0.00 | 0.68 | 0.66 | 94 | 1012.0 |
| 20260904093459 | 72 | 310 | 1.0 | 3.0 | 0.00 | 0.68 | 0.66 | 94 | 1012.0 |
| 20260904093003 | 72 | 313 | 0.0 | 3.0 | 0.00 | 0.68 | 0.66 | 94 | 1012.0 |
| 20260904092459 | 72 | 313 | 0.0 | 2.0 | 0.00 | 0.68 | 0.66 | 94 | 1012.2 |
| 20260904092000 | 73 | 313 | 0.0 | 2.0 | 0.00 | 0.68 | 0.66 | 94 | 1012.1 |
| 20260904091459 | 73 | 313 | 0.0 | 1.0 | 0.00 | 0.68 | 0.66 | 94 | 1012.1 |
| 20260904091001 | 72 | 313 | 0.0 | 1.0 | 0.00 | 0.68 | 0.66 | 94 | 1012.1 |
| 20260904090459 | 73 | 313 | 0.0 | 1.0 | 0.00 | 0.68 | 0.66 | 94 | 1012.1 |
| 20260904090001 | 73 | 313 | 0.0 | 1.0 | 0.00 | 0.69 | 0.66 | 94 | 1012.0 |
| 20260904085459 | 73 | 313 | 0.0 | 1.0 | 0.00 | 0.69 | 0.66 | 94 | 1012.1 |
| 20260904085001 | 73 | 313 | 0.0 | 1.0 | 0.00 | 0.69 | 0.66 | 94 | 1012.0 |
| 20260904084001 | 73 | 313 | 0.0 | 2.0 | 0.00 | 0.69 | 0.66 | 94 | 1011.9 |
| 20260904083500 | 73 | 313 | 0.0 | 2.0 | 0.00 | 0.69 | 0.66 | 94 | 1012.1 |
| 20260904082000 | 73 | 313 | 1.0 | 4.0 | 0.00 | 0.69 | 0.66 | 94 | 1012.5 |
| 20260904081500 | 73 | 314 | 1.0 | 4.0 | 0.00 | 0.69 | 0.66 | 94 | 1012.6 |
| 20260904081001 | 73 | 314 | 1.0 | 4.0 | 0.01 | 0.69 | 0.66 | 94 | 1012.7 |
| 20260904080500 | 73 | 207 | 1.0 | 4.0 | 0.02 | 0.69 | 0.66 | 94 | 1012.7 |
| 20260904080006 | 73 | 207 | 1.0 | 4.0 | 0.02 | 0.69 | 0.66 | 94 | 1012.7 |
| 20260904075500 | 73 | 256 | 1.0 | 4.0 | 0.03 | 0.72 | 0.66 | 94 | 1012.7 |
| 20260904075002 | 73 | 250 | 1.0 | 3.0 | 0.04 | 0.72 | 0.66 | 94 | 1012.8 |
| 20260904074501 | 73 | 250 | 1.0 | 3.0 | 0.05 | 0.72 | 0.66 | 94 | 1012.8 |
| 20260904074001 | 73 | 250 | 1.0 | 3.0 | 0.07 | 0.72 | 0.66 | 94 | 1012.8 |
| 20260904073500 | 73 | 250 | 1.0 | 3.0 | 0.08 | 0.72 | 0.66 | 94 | 1012.9 |
| 20260904073001 | 73 | 250 | 1.0 | 3.0 | 0.09 | 0.72 | 0.66 | 93 | 1013.1 |
| 20260904072503 | 73 | 250 | 1.0 | 3.0 | 0.10 | 0.72 | 0.66 | 93 | 1013.2 |
| 20260904072001 | 73 | 250 | 1.0 | 4.0 | 0.10 | 0.72 | 0.66 | 93 | 1013.1 |
| 20260904071501 | 73 | 250 | 1.0 | 4.0 | 0.10 | 0.72 | 0.66 | 93 | 1013.2 |
| 20260904071000 | 73 | 250 | 1.0 | 3.0 | 0.10 | 0.71 | 0.65 | 93 | 1013.2 |
| 20260904070502 | 73 | 250 | 1.0 | 4.0 | 0.10 | 0.70 | 0.64 | 93 | 1013.0 |
| 20260904070006 | 73 | 250 | 1.0 | 4.0 | 0.11 | 0.70 | 0.64 | 93 | 1013.0 |
| 20260904065500 | 73 | 194 | 2.0 | 5.0 | 0.12 | 0.69 | 0.63 | 93 | 1013.2 |
| 20260904065002 | 73 | 194 | 3.0 | 7.0 | 0.13 | 0.68 | 0.62 | 93 | 1013.3 |
| 20260904064500 | 73 | 191 | 3.0 | 9.0 | 0.35 | 0.67 | 0.61 | 93 | 1013.4 |
| 20260904064001 | 73 | 167 | 3.0 | 9.0 | 0.56 | 0.65 | 0.59 | 93 | 1013.6 |
| 20260904063500 | 73 | 190 | 3.0 | 7.0 | 0.58 | 0.64 | 0.58 | 93 | 1013.7 |
| 20260904063000 | 73 | 200 | 3.0 | 7.0 | 0.57 | 0.63 | 0.57 | 93 | 1013.9 |
| 20260904062500 | 73 | 236 | 3.0 | 7.0 | 0.56 | 0.62 | 0.56 | 93 | 1014.0 |
| 20260904062002 | 73 | 261 | 2.0 | 7.0 | 0.56 | 0.62 | 0.56 | 93 | 1014.3 |
| 20260904061501 | 73 | 221 | 2.0 | 4.0 | 0.55 | 0.61 | 0.55 | 93 | 1014.5 |
| 20260904061002 | 73 | 221 | 2.0 | 7.0 | 0.55 | 0.61 | 0.55 | 93 | 1014.6 |
| 20260904060501 | 74 | 256 | 3.0 | 10.0 | 0.54 | 0.60 | 0.54 | 93 | 1014.8 |
| 20260904060000 | 74 | 300 | 5.0 | 16.0 | 0.52 | 0.58 | 0.52 | 92 | 1014.9 |
| 20260904055500 | 74 | 304 | 6.0 | 16.0 | 0.51 | 0.57 | 0.51 | 92 | 1014.8 |
| 20260904055002 | 74 | 264 | 9.0 | 23.0 | 0.49 | 0.55 | 0.49 | 92 | 1015.0 |
| 20260904054500 | 75 | 355 | 9.0 | 37.0 | 0.26 | 0.32 | 0.26 | 91 | 1015.2 |
| 20260904054000 | 77 | 281 | 4.0 | 25.0 | 0.03 | 0.09 | 0.03 | 92 | 1014.0 |
| 20260904053500 | 79 | 348 | 1.0 | 8.0 | 0.00 | 0.06 | 0.00 | 93 | 1013.5 |
| 20260904053001 | 78 | 277 | 1.0 | 3.0 | 0.00 | 0.06 | 0.00 | 93 | 1012.4 |
| 20260904052500 | 78 | 277 | 0.0 | 2.0 | 0.00 | 0.06 | 0.00 | 93 | 1012.4 |
| 20260904052000 | 78 | 277 | 0.0 | 1.0 | 0.00 | 0.06 | 0.00 | 93 | 1012.1 |
| 20260904051459 | 78 | 277 | 0.0 | 2.0 | 0.00 | 0.06 | 0.00 | 93 | 1012.1 |
| 20260904051000 | 78 | 277 | 0.0 | 2.0 | 0.00 | 0.06 | 0.00 | 93 | 1012.2 |
| 20260904050459 | 77 | 277 | 0.0 | 2.0 | 0.00 | 0.06 | 0.00 | 93 | 1012.4 |
| 20260904050005 | 77 | 277 | 0.0 | 1.0 | 0.00 | 0.06 | 0.00 | 93 | 1012.3 |
| 20260904045503 | 77 | 277 | 0.0 | 1.0 | 0.00 | 0.06 | 0.00 | 93 | 1012.3 |
| 20260904045004 | 77 | 277 | 0.0 | 2.0 | 0.00 | 0.06 | 0.00 | 93 | 1012.5 |
| 20260904044504 | 77 | 277 | 0.0 | 2.0 | 0.00 | 0.06 | 0.00 | 93 | 1012.6 |
| 20260904043009 | 77 | 277 | 0.0 | 0.0 | 0.00 | 0.06 | 0.00 | 93 | 1012.4 |
| 20260904042504 | 78 | 277 | 0.0 | 1.0 | 0.00 | 0.06 | 0.00 | 93 | 1012.4 |
| 20260904042004 | 78 | 277 | 0.0 | 1.0 | 0.00 | 0.06 | 0.00 | 93 | 1012.3 |
| 20260904041005 | 78 | 277 | 0.0 | 1.0 | 0.00 | 0.06 | 0.00 | 93 | 1012.4 |
| 20260904040011 | 78 | 277 | 0.0 | 1.0 | 0.00 | 0.06 | 0.00 | 93 | 1012.6 |
| 20260904035005 | 78 | 277 | 0.0 | 1.0 | 0.00 | 0.06 | 0.06 | 92 | 1012.9 |
| 20260904034504 | 78 | 277 | 0.0 | 1.0 | 0.00 | 0.06 | 0.06 | 92 | 1013.0 |
| 20260904034004 | 78 | 277 | 0.0 | 1.0 | 0.00 | 0.06 | 0.06 | 92 | 1013.1 |
| 20260904033505 | 78 | 277 | 0.0 | 1.0 | 0.00 | 0.06 | 0.06 | 92 | 1013.2 |
| 20260904033004 | 78 | 277 | 0.0 | 1.0 | 0.00 | 0.06 | 0.06 | 92 | 1013.3 |
| 20260904032504 | 78 | 277 | 0.0 | 1.0 | 0.00 | 0.06 | 0.06 | 92 | 1013.3 |
| 20260904032006 | 78 | 277 | 0.0 | 1.0 | 0.00 | 0.06 | 0.06 | 92 | 1013.4 |
| 20260904031504 | 78 | 277 | 0.0 | 1.0 | 0.00 | 0.06 | 0.06 | 92 | 1013.3 |
| 20260904031005 | 78 | 277 | 0.0 | 1.0 | 0.00 | 0.06 | 0.06 | 92 | 1013.4 |
| 20260904030504 | 78 | 277 | 0.0 | 0.0 | 0.00 | 0.06 | 0.06 | 92 | 1013.5 |
| 20260904030005 | 78 | 277 | 0.0 | 0.0 | 0.00 | 0.06 | 0.06 | 92 | 1013.4 |
| 20260904025503 | 78 | 277 | 0.0 | 0.0 | 0.00 | 0.06 | 0.06 | 92 | 1013.4 |
| 20260904025005 | 78 | 277 | 0.0 | 0.0 | 0.00 | 0.06 | 0.06 | 92 | 1013.3 |
| 20260904024503 | 78 | 277 | 0.0 | 1.0 | 0.00 | 0.06 | 0.06 | 92 | 1013.3 |
| 20260904023503 | 78 | 277 | 0.0 | 1.0 | 0.00 | 0.06 | 0.06 | 92 | 1013.2 |
| 20260904023003 | 78 | 277 | 0.0 | 1.0 | 0.00 | 0.06 | 0.06 | 91 | 1013.2 |
| 20260904022504 | 79 | 277 | 0.0 | 1.0 | 0.00 | 0.06 | 0.06 | 91 | 1013.1 |
| 20260904022004 | 78 | 277 | 0.0 | 1.0 | 0.00 | 0.06 | 0.06 | 91 | 1013.1 |
| 20260904021004 | 79 | 277 | 0.0 | 1.0 | 0.00 | 0.06 | 0.06 | 91 | 1013.2 |
| 20260904020505 | 79 | 277 | 0.0 | 1.0 | 0.00 | 0.06 | 0.06 | 91 | 1013.3 |
| 20260904015504 | 79 | 277 | 0.0 | 2.0 | 0.00 | 0.06 | 0.06 | 91 | 1013.3 |
| 20260904015004 | 79 | 277 | 0.0 | 2.0 | 0.00 | 0.06 | 0.06 | 91 | 1013.4 |
| 20260904014504 | 79 | 277 | 0.0 | 0.0 | 0.00 | 0.06 | 0.06 | 91 | 1013.7 |
| 20260904013502 | 79 | 277 | 0.0 | 1.0 | 0.00 | 0.06 | 0.06 | 90 | 1013.8 |
| 20260904013005 | 79 | 277 | 0.0 | 1.0 | 0.00 | 0.06 | 0.06 | 90 | 1013.7 |
| 20260904012503 | 79 | 277 | 0.0 | 1.0 | 0.00 | 0.06 | 0.06 | 89 | 1013.8 |
| 20260904012003 | 79 | 277 | 0.0 | 0.0 | 0.00 | 0.06 | 0.06 | 90 | 1013.9 |
| 20260904011505 | 79 | 277 | 0.0 | 1.0 | 0.00 | 0.06 | 0.06 | 90 | 1013.9 |
| 20260904010503 | 79 | 277 | 0.0 | 1.0 | 0.00 | 0.06 | 0.06 | 90 | 1014.0 |
| 20260904010007 | 80 | 277 | 0.0 | 1.0 | 0.00 | 0.06 | 0.06 | 89 | 1013.9 |
| 20260904005504 | 80 | 277 | 0.0 | 1.0 | 0.00 | 0.06 | 0.06 | 89 | 1013.9 |
| 20260904005005 | 80 | 277 | 0.0 | 0.0 | 0.00 | 0.06 | 0.06 | 89 | 1013.9 |
| 20260904004503 | 80 | 277 | 0.0 | 1.0 | 0.00 | 0.06 | 0.06 | 89 | 1013.8 |
| 20260904004005 | 80 | 277 | 0.0 | 1.0 | 0.00 | 0.06 | 0.06 | 89 | 1013.8 |
| 20260904003503 | 80 | 277 | 0.0 | 1.0 | 0.00 | 0.06 | 0.06 | 89 | 1013.7 |
| 20260904003004 | 80 | 277 | 0.0 | 1.0 | 0.00 | 0.06 | 0.06 | 88 | 1013.7 |
| 20260904002503 | 80 | 277 | 0.0 | 1.0 | 0.00 | 0.06 | 0.06 | 88 | 1013.6 |
| 20260904002005 | 80 | 277 | 0.0 | 1.0 | 0.00 | 0.06 | 0.06 | 88 | 1013.7 |
| 20260904001505 | 81 | 277 | 0.0 | 1.0 | 0.00 | 0.06 | 0.06 | 88 | 1013.6 |
| 20260904001004 | 81 | 277 | 0.0 | 1.0 | 0.00 | 0.06 | 0.06 | 88 | 1013.5 |
| 20260904000503 | 81 | 277 | 0.0 | 2.0 | 0.00 | 0.06 | 0.06 | 88 | 1013.2 |
| 20260904000006 | 81 | 277 | 0.0 | 2.0 | 0.00 | 0.06 | 0.06 | 87 | 1013.1 |
| 20260903235004 | 81 | 277 | 0.0 | 2.0 | 0.00 | 0.06 | 0.06 | 86 | 1013.0 |
| 20260903234504 | 81 | 277 | 0.0 | 1.0 | 0.00 | 0.06 | 0.06 | 86 | 1012.9 |
| 20260903234005 | 82 | 277 | 0.0 | 0.0 | 0.00 | 0.06 | 0.06 | 86 | 1013.0 |
| 20260903233505 | 82 | 277 | 0.0 | 3.0 | 0.00 | 0.06 | 0.06 | 86 | 1013.1 |
| 20260903233006 | 82 | 277 | 0.0 | 3.0 | 0.00 | 0.06 | 0.06 | 85 | 1013.1 |
| 20260903232004 | 82 | 277 | 0.0 | 1.0 | 0.00 | 0.06 | 0.06 | 84 | 1013.1 |
| 20260903231504 | 83 | 277 | 0.0 | 1.0 | 0.00 | 0.06 | 0.06 | 83 | 1013.1 |
| 20260903230504 | 83 | 277 | 1.0 | 2.0 | 0.00 | 0.06 | 0.06 | 82 | 1013.2 |
| 20260903230005 | 83 | 277 | 0.0 | 3.0 | 0.00 | 0.06 | 0.06 | 83 | 1013.1 |
| 20260903225004 | 83 | 277 | 0.0 | 1.0 | 0.00 | 0.06 | 0.06 | 83 | 1013.1 |
| 20260903224503 | 83 | 277 | 0.0 | 1.0 | 0.00 | 0.06 | 0.06 | 82 | 1013.0 |
| 20260903224005 | 84 | 277 | 0.0 | 1.0 | 0.00 | 0.06 | 0.06 | 81 | 1013.0 |
| 20260903223504 | 84 | 277 | 0.0 | 1.0 | 0.00 | 0.06 | 0.06 | 81 | 1013.0 |
| 20260903222502 | 85 | 277 | 1.0 | 2.0 | 0.00 | 0.06 | 0.06 | 76 | 1012.9 |
| 20260903222005 | 85 | 277 | 1.0 | 3.0 | 0.00 | 0.06 | 0.06 | 76 | 1012.9 |
| 20260903221503 | 86 | 277 | 1.0 | 3.0 | 0.00 | 0.06 | 0.06 | 76 | 1012.8 |
| 20260903221004 | 86 | 277 | 0.0 | 1.0 | 0.00 | 0.06 | 0.06 | 75 | 1012.9 |
| 20260903220503 | 86 | 277 | 1.0 | 4.0 | 0.00 | 0.06 | 0.06 | 74 | 1013.0 |
| 20260903220005 | 86 | 277 | 1.0 | 4.0 | 0.00 | 0.06 | 0.06 | 75 | 1013.1 |
| 20260903214501 | 87 | 280 | 1.0 | 3.0 | 0.00 | 0.06 | 0.06 | 72 | 1013.0 |
| 20260903214004 | 86 | 281 | 2.0 | 9.0 | 0.00 | 0.06 | 0.06 | 73 | 1012.9 |
| 20260903213503 | 87 | 309 | 2.0 | 9.0 | 0.00 | 0.06 | 0.06 | 72 | 1013.1 |
| 20260903212502 | 88 | 311 | 2.0 | 8.0 | 0.00 | 0.06 | 0.06 | 72 | 1013.1 |
| 20260903211503 | 88 | 5 | 3.0 | 9.0 | 0.00 | 0.06 | 0.06 | 72 | 1013.1 |
| 20260903210502 | 88 | 311 | 2.0 | 7.0 | 0.00 | 0.06 | 0.06 | 72 | 1013.1 |
| 20260903205004 | 88 | 281 | 3.0 | 7.0 | 0.00 | 0.07 | 0.06 | 73 | 1013.2 |
| 20260903204503 | 88 | 308 | 2.0 | 6.0 | 0.00 | 0.07 | 0.06 | 73 | 1013.4 |